Total_Precipitation_Accumulation
0.00 0.00 0.01 0.01 0.01 0.02 0.03 0.07 0.15 0.17 0.16 0.23 0.37 0.62 0.74 0.71 0.72 0.76 0.89 1.11 1.17 1.24 1.51 1.95 2.56 3.12 3.70 4.54 5.03 5.06 4.67 3.78 3.18 2.68 2.42 2.19 1.94 1.74 1.50 1.24 1.05 0.93 0.88 0.79
0.01 0.02 0.02 0.01 0.01 0.03 0.05 0.09 0.17 0.16 0.12 0.14 0.34 0.65 0.74 0.78 0.82 0.75 0.80 0.92 0.87 0.99 1.34 1.95 2.70 3.39 3.84 4.19 4.40 4.29 3.76 2.95 2.41 2.09 1.99 1.82 1.64 1.33 1.17 0.99 0.91 0.81 0.75 0.69
0.02 0.03 0.02 0.01 0.02 0.04 0.08 0.09 0.14 0.17 0.13 0.15 0.34 0.75 0.87 0.86 0.83 0.76 0.63 0.65 0.77 0.98 1.54 2.28 3.05 3.61 3.70 3.57 3.23 2.86 2.57 2.15 1.97 1.89 1.71 1.53 1.45 1.19 0.98 0.76 0.67 0.62 0.55 0.50
0.02 0.03 0.02 0.02 0.04 0.05 0.09 0.07 0.05 0.07 0.11 0.32 0.45 0.86 0.94 0.94 0.90 0.69 0.60 0.67 0.83 1.09 1.65 2.35 2.88 2.97 2.94 2.68 2.27 2.04 1.94 1.80 1.68 1.60 1.49 1.23 1.03 0.93 0.79 0.68 0.60 0.54 0.45 0.42
0.02 0.03 0.03 0.03 0.04 0.05 0.05 0.04 0.04 0.08 0.18 0.34 0.47 0.74 0.97 0.94 1.03 0.62 0.46 0.55 0.69 0.93 1.22 1.44 1.61 1.64 1.68 1.59 1.65 1.70 1.74 1.74 1.64 1.55 1.43 1.26 1.01 0.92 0.86 0.81 0.73 0.65 0.55 0.45
0.03 0.03 0.03 0.03 0.03 0.04 0.04 0.06 0.12 0.21 0.36 0.70 0.69 0.79 1.07 1.02 0.86 0.45 0.27 0.33 0.53 0.66 0.70 0.76 0.77 0.83 1.01 1.02 1.12 1.24 1.29 1.42 1.48 1.42 1.24 1.13 1.01 0.95 0.91 0.80 0.66 0.57 0.51 0.47
0.09 0.07 0.05 0.05 0.05 0.06 0.05 0.09 0.31 0.63 0.98 1.03 0.61 0.69 1.04 0.96 0.62 0.32 0.20 0.17 0.24 0.38 0.51 0.61 0.65 0.71 0.85 0.78 0.81 0.92 0.97 0.99 1.06 1.05 0.98 0.95 0.95 0.92 0.84 0.71 0.60 0.51 0.41 0.39
0.15 0.14 0.09 0.06 0.06 0.06 0.06 0.07 0.18 0.35 0.44 0.59 0.61 1.06 1.21 0.64 0.34 0.20 0.14 0.11 0.15 0.25 0.37 0.42 0.45 0.52 0.60 0.54 0.57 0.69 0.77 0.76 0.76 0.78 0.79 0.76 0.81 0.73 0.68 0.70 0.60 0.52 0.43 0.39
0.06 0.08 0.07 0.07 0.07 0.07 0.06 0.05 0.07 0.09 0.16 0.41 0.75 1.05 0.91 0.45 0.29 0.15 0.11 0.11 0.12 0.16 0.24 0.26 0.27 0.31 0.39 0.42 0.46 0.54 0.64 0.66 0.62 0.66 0.68 0.63 0.69 0.70 0.68 0.66 0.58 0.52 0.54 0.45
0.04 0.03 0.05 0.05 0.07 0.07 0.06 0.06 0.07 0.10 0.18 0.36 0.65 1.00 1.05 0.62 0.33 0.18 0.14 0.15 0.14 0.14 0.17 0.16 0.17 0.19 0.24 0.33 0.44 0.52 0.56 0.60 0.58 0.59 0.58 0.51 0.58 0.67 0.73 0.68 0.59 0.57 0.59 0.52
0.03 0.02 0.05 0.05 0.07 0.08 0.09 0.08 0.10 0.10 0.11 0.21 0.48 0.70 0.52 0.42 0.30 0.24 0.20 0.16 0.13 0.14 0.17 0.14 0.11 0.12 0.16 0.24 0.35 0.42 0.51 0.58 0.58 0.58 0.63 0.66 0.64 0.60 0.68 0.70 0.69 0.70 0.71 0.61
0.03 0.03 0.04 0.08 0.10 0.10 0.11 0.11 0.12 0.13 0.12 0.12 0.25 0.37 0.33 0.41 0.39 0.30 0.22 0.20 0.17 0.15 0.13 0.10 0.10 0.12 0.16 0.20 0.27 0.34 0.40 0.50 0.53 0.55 0.62 0.68 0.73 0.65 0.67 0.71 0.73 0.74 0.79 0.81
0.03 0.04 0.06 0.15 0.22 0.17 0.12 0.11 0.12 0.12 0.10 0.11 0.26 0.37 0.31 0.30 0.31 0.26 0.25 0.20 0.17 0.18 0.16 0.13 0.17 0.19 0.20 0.24 0.27 0.36 0.43 0.51 0.59 0.59 0.63 0.70 0.73 0.70 0.71 0.82 0.85 0.82 0.87 0.92
0.04 0.04 0.06 0.15 0.25 0.28 0.20 0.13 0.12 0.10 0.08 0.09 0.15 0.32 0.30 0.30 0.29 0.32 0.33 0.28 0.23 0.19 0.16 0.12 0.14 0.18 0.21 0.28 0.33 0.43 0.60 0.57 0.54 0.60 0.65 0.70 0.74 0.78 0.82 0.87 0.92 0.91 0.94 0.97
0.04 0.04 0.04 0.05 0.09 0.14 0.19 0.17 0.13 0.09 0.07 0.09 0.14 0.24 0.29 0.36 0.34 0.33 0.33 0.30 0.28 0.21 0.17 0.16 0.16 0.18 0.26 0.33 0.36 0.43 0.51 0.63 0.67 0.76 0.82 0.86 0.96 1.05 1.10 1.13 1.12 1.07 1.07 1.06
0.07 0.06 0.04 0.04 0.07 0.11 0.13 0.16 0.11 0.08 0.07 0.06 0.13 0.28 0.32 0.29 0.25 0.30 0.30 0.31 0.27 0.24 0.21 0.22 0.25 0.25 0.26 0.30 0.36 0.45 0.47 0.58 0.73 0.90 1.01 1.08 1.22 1.33 1.42 1.52 1.59 1.51 1.43 1.46
0.13 0.10 0.08 0.07 0.10 0.11 0.15 0.14 0.12 0.12 0.11 0.10 0.17 0.27 0.30 0.31 0.35 0.46 0.44 0.42 0.43 0.36 0.34 0.34 0.36 0.36 0.34 0.34 0.39 0.45 0.50 0.63 0.81 1.02 1.20 1.32 1.45 1.61 1.74 1.81 1.84 1.80 1.82 1.86
0.19 0.19 0.16 0.12 0.16 0.21 0.18 0.18 0.16 0.17 0.18 0.19 0.24 0.30 0.39 0.49 0.55 0.64 0.67 0.56 0.50 0.42 0.36 0.36 0.43 0.46 0.43 0.46 0.54 0.62 0.73 0.88 1.06 1.23 1.40 1.57 1.60 1.64 1.73 1.77 1.72 1.74 1.85 1.90
0.21 0.25 0.26 0.22 0.24 0.22 0.23 0.26 0.26 0.29 0.38 0.36 0.41 0.48 0.58 0.64 0.57 0.56 0.52 0.45 0.38 0.36 0.37 0.38 0.44 0.52 0.58 0.59 0.65 0.74 0.79 0.90 1.08 1.24 1.33 1.41 1.52 1.63 1.67 1.66 1.70 1.75 1.78 1.69
0.30 0.31 0.40 0.35 0.37 0.38 0.39 0.41 0.36 0.38 0.67 0.61 0.56 0.58 0.61 0.65 0.77 0.70 0.52 0.43 0.41 0.40 0.39 0.41 0.43 0.47 0.56 0.65 0.67 0.70 0.79 0.92 1.10 1.24 1.27 1.30 1.42 1.53 1.61 1.64 1.67 1.65 1.60 1.55
0.50 0.53 0.50 0.49 0.51 0.43 0.43 0.39 0.36 0.57 0.75 0.64 0.66 0.70 0.70 0.77 0.84 0.76 0.57 0.47 0.42 0.41 0.39 0.42 0.47 0.48 0.52 0.61 0.66 0.74 0.85 0.94 1.00 1.09 1.17 1.25 1.39 1.49 1.51 1.59 1.60 1.59 1.57 1.58
0.58 0.63 0.63 0.63 0.76 0.74 0.55 0.45 0.60 0.75 0.61 0.68 0.72 0.68 0.69 0.68 0.61 0.57 0.52 0.54 0.50 0.44 0.42 0.43 0.50 0.61 0.65 0.66 0.66 0.72 0.75 0.76 0.83 0.89 0.95 0.98 1.07 1.19 1.26 1.38 1.40 1.43 1.41 1.37
0.73 0.72 0.74 0.83 0.90 0.74 0.64 0.66 0.69 0.66 0.58 0.61 0.69 0.68 0.72 0.75 0.64 0.50 0.44 0.44 0.50 0.50 0.47 0.48 0.52 0.57 0.60 0.65 0.71 0.78 0.78 0.75 0.74 0.74 0.74 0.76 0.81 0.96 1.12 1.19 1.18 1.21 1.22 1.20
0.85 0.69 0.76 0.98 1.00 0.88 0.82 0.78 0.69 0.67 0.65 0.60 0.68 0.77 0.79 0.78 0.65 0.55 0.47 0.39 0.36 0.35 0.34 0.40 0.45 0.51 0.58 0.58 0.61 0.67 0.71 0.71 0.75 0.76 0.77 0.78 0.81 0.90 1.14 1.28 1.21 1.16 1.15 1.12
0.84 0.82 0.86 1.02 1.09 0.92 0.83 0.80 0.79 0.74 0.70 0.68 0.73 0.80 0.78 0.68 0.64 0.58 0.46 0.36 0.31 0.30 0.29 0.33 0.37 0.39 0.39 0.41 0.44 0.49 0.54 0.62 0.66 0.64 0.62 0.63 0.70 0.82 1.01 1.16 1.17 1.05 1.02 1.01
0.70 0.82 0.90 1.00 0.94 0.94 0.97 0.91 0.86 0.86 0.84 0.78 0.77 0.82 0.78 0.69 0.61 0.53 0.42 0.33 0.30 0.28 0.29 0.33 0.37 0.39 0.40 0.41 0.47 0.53 0.60 0.67 0.70 0.67 0.62 0.62 0.64 0.74 0.92 1.12 1.18 0.99 0.82 0.80